Location: Dealu Mare
(46.0500°N, 22.8167°E)
Time: 22:17:46
(UTC+00:00)

SL-8 Rocket - Pass Details

Date: 15 January 2026
Orbit: 955 x 990 km, 82.9° (Epoch: 13 February)

Event Time Altitude Azimuth Distance (km) Brightness Sun altitude
Rises 05:27:27 0° 194° (SSW) 3,688 7.1 -6.9°
Reaches altitude 10° 05:29:59 10° 197° (SSW) 2,742 6.5 -6.5°
Maximum altitude 05:36:15 68° 280° (W) 1,057 4.0 -5.6°
Drops below altitude 10° 05:42:32 10° 4° (N) 2,744 6.2 -4.6°
Sets 05:45:05 0° 7° (N) 3,691 6.8 -4.2°
